Tracking 30923 objects as of 1-Jul-2025
HD Live streaming from Space Station
objects crossing your sky now

IPERDRONE.0

Track IPERDRONE.0 now!
10-day predictions


NORAD ID: 60520
Int'l Code: 2024-149BE
Perigee: 460.8 km
Apogee: 469.3 km
Inclination: 97.4 °
Period: 93.7 minutes
Semi major axis: 6836 km
RCS: Unknown
Launch date: August 16, 2024
Source: Italy (IT)
Launch site: AIR FORCE WESTERN TEST RANGE (AFWTR)
Your satellite tracking list
Your tracking list is empty




NASA's NSSDC Master Catalog

Two Line Element Set (TLE):
1 60520U 24149BE  25181.16078008  .00013129  00000-0  37641-3 0  9990
2 60520  97.4087 261.2684 0006237  91.6926 268.5032 15.36003587 48444
Source of the keplerian elements: AFSPC